Lake Superior Provincial Park, Ontario

Past 24 Hour Conditions

This table is a summary of hourly weather conditions for the past 24 hours. This summary includes the following parameters: temperature, humidity, dew point, wind speed and direction, air pressure, visibility and/or wind chill and humidex.
Date / Time
(EDT)
Conditions Temp (°C) Humidity (%) Dew Point (°C) Wind (km/h) Pressure (kPa) Visibility (km)
01 September 2014
7:00 N/A 18   91 16 SSE 13 100.6 N/A
6:00 N/A 18   91 16 SSE 9 100.7 N/A
5:00 N/A 17 94 16 SSE 7 100.7 N/A
4:00 N/A 16 94 15 S 9 100.8 N/A
3:00 N/A 15 95 15 S 8 100.9 N/A
2:00 N/A 15 96 15 S 9 101.0 N/A
1:00 N/A 14 97 14 S 5 101.1 N/A
00:00 N/A 14 97 13 S 5 101.0 N/A
31 August 2014
23:00 N/A 14 98 14 S 5 101.0 N/A
22:00 N/A 12   95 12 S 3 101.1 N/A
21:00 N/A 14 93 12 S 2 101.2 N/A
20:00 N/A 16 86 14 SSE 3 101.2 N/A
19:00 N/A 17 84 15 SE 4 101.2 N/A
18:00 N/A 17 82 14 SSE 4 101.2 N/A
17:00 N/A 17 82 14 S 5 101.2 N/A
16:00 N/A 17 79 14 ESE 7 101.2 N/A
15:00 N/A 17 79 13 E 10 101.3 N/A
14:00 N/A 16 83 13 ESE 5 101.3 N/A
13:00 N/A 16 84 13 NE 6 101.3 N/A
12:00 N/A 15 87 13 E 7 101.3 N/A
11:00 N/A 14 88 12 ENE 10 101.3 N/A
10:00 N/A 13 92 12 ENE 5 101.3 N/A
9:00 N/A 13 95 12 NE 7 101.3 N/A
8:00 N/A 13 96 12 NE 8 101.3 N/A
7:00 N/A 13 96 12 NNE 4 101.2 N/A
N/A
Not available
 ↑ 
Highest temperature
 ↓ 
Lowest temperature

If you require additional historical weather information, please visit Climate Data Online.